Location: Blazny
(46.0612°N, 84.4033°W)
Time: 09:09:54
(UTC-04:00)

ARIANE 6 FM1 Upper Stage - Pass Details

Date: 18 September 2024
Orbit: 564 x 594 km, 62.0° (Epoch: 03 October)

Event Time Altitude Azimuth Distance (km) Brightness Sun altitude
Exits shadow 03:10:23 11° 6° (N) 1,875 5.9 -37.6°
Maximum altitude 03:10:47 11° 12° (NNE) 1,868 6.0 -37.5°
Drops below altitude 10° 03:12:01 10° 28° (NNE) 1,934 6.1 -37.4°
Sets 03:16:04 0° 65° (ENE) 2,839 7.0 -37.0°
